Zurück zum Katalog

ARIANE 44L R/B

AktivGTO
NORAD 20717·ROCKET BODY·🇫🇷 France

Gestartet Jul 24, 1990 von Guiana Space Centre

Loading…

TLE

AlterndSource: Space-Track

Epoche: Sep 14, 2026, 11:34 UTC

1 20717U 90063C   26257.48236326  .00000718  00000-0  21453-2 0  9994
2 20717   3.8407  82.1428 7146464 109.1928 336.0353  2.37015012298652

Verfolge ARIANE 44L R/B in Echtzeit mit AllMySat

Download on the App Store